Location: Eaton Estates
(41.3089°N, 82.0057°W)
Time: 08:29:27
(UTC+00:00)

USA 267 - Pass Details

Date: 17 June 2021
Orbit: 1102 x 1106 km, 123.0° (Epoch: 24 July)

Event Time Altitude Azimuth Distance (km) Brightness Sun altitude
Exits shadow 07:08:56 22° 252° (WSW) 2,175 4.4 -21.3°
Drops below altitude 10° 07:12:49 10° 288° (WNW) 2,961 5.4 -21.0°
Sets 07:15:54 0° 302° (WNW) 3,924 6.2 -20.7°
